Find Starlink 5698

NORAD ID: 55623 Int'l Des: 2023-020 Owner: SPXS Country: US Constellation: starlink operational
LEOCIRCULAR

当前视图

正在加载3D地球...

About Starlink 5698

Starlink 5698 (NORAD 55623) is a starlink constellation satellite (v1.5) launched Feb 12, 2023 by SPXS of US. It operates in LEO, CIRCULAR orbit with a mass of 305.00 kg.

关于 Starlink 5698

正在加载描述...

即将过境

Passes for default location (London). Set your location on the main map for personalized predictions.

高度历史

Loading altitude history...

两行轨道根数

1 55623U 23020BG 26194.52532681 .00001720 00000-0 71988-4 0 9999
2 55623 43.0050 3.6226 0001548 251.0377 109.0307 15.27586789 11704
Epoch: Jul 13, 2026 • Age: 26 hours

当前状态

高度 494.6 km
远地点 / 近地点 N/A
速度 7.62 km/s
星下点 -41.10°S, 132.04°E
发射日期 Feb 12, 2023
运行时间 3.4 years
类型 internet

技术详情

分类 Payload
质量 305.00 kg
干质量 290.00 kg
总质量 305.00 kg
长度 0.20 m
直径 2.80 m
跨度 9.00 m
形状 Box + pan
制造商 SPXS
平台类型 Starlink
阶段状态 In Orbit
所有者/国家 SPXS/US

Most Searched